TimeEST,TemperatureF,Dew PointF,Humidity,Sea Level PressureIn,VisibilityMPH,Wind Direction,Wind SpeedMPH,Gust SpeedMPH,PrecipitationIn,Events,Conditions,WindDirDegrees,DateUTC
12:53 AM,66.0,62.1,87,30.07,10.0,Calm,Calm,-,N/A,,Overcast,0,2013-02-06 05:53:00
2:53 AM,63.0,61.0,93,30.05,10.0,NW,5.8,-,N/A,,Clear,320,2013-02-06 07:53:00
3:53 AM,63.0,62.1,97,30.05,10.0,Calm,Calm,-,N/A,,Partly Cloudy,0,2013-02-06 08:53:00
4:53 AM,62.1,61.0,96,30.06,10.0,Calm,Calm,-,N/A,,Clear,0,2013-02-06 09:53:00
5:53 AM,61.0,60.1,97,30.07,10.0,Calm,Calm,-,N/A,,Clear,0,2013-02-06 10:53:00
6:53 AM,62.1,61.0,96,30.10,10.0,Calm,Calm,-,N/A,,Clear,0,2013-02-06 11:53:00
7:53 AM,63.0,61.0,93,30.11,10.0,Calm,Calm,-,N/A,,Clear,0,2013-02-06 12:53:00
8:53 AM,69.1,62.1,78,30.12,10.0,Calm,Calm,-,N/A,,Scattered Clouds,0,2013-02-06 13:53:00
9:53 AM,73.9,63.0,68,30.13,10.0,Calm,Calm,-,N/A,,Overcast,0,2013-02-06 14:53:00
10:53 AM,79.0,62.1,56,30.12,10.0,East,10.4,-,N/A,,Mostly Cloudy,100,2013-02-06 15:53:00
11:53 AM,80.1,61.0,52,30.12,10.0,East,11.5,-,N/A,,Overcast,100,2013-02-06 16:53:00
12:53 PM,80.1,61.0,52,30.10,10.0,SE,11.5,-,N/A,,Partly Cloudy,130,2013-02-06 17:53:00
1:53 PM,79.0,59.0,50,30.08,10.0,Variable,5.8,-,N/A,,Partly Cloudy,0,2013-02-06 18:53:00
2:53 PM,80.1,60.1,50,30.07,10.0,East,12.7,-,N/A,,Mostly Cloudy,80,2013-02-06 19:53:00
3:53 PM,75.9,62.1,62,30.07,10.0,ESE,11.5,-,N/A,,Overcast,110,2013-02-06 20:53:00
4:53 PM,75.9,62.1,62,30.07,10.0,ESE,11.5,-,N/A,,Overcast,120,2013-02-06 21:53:00
5:53 PM,73.9,61.0,64,30.08,10.0,ESE,6.9,-,N/A,,Clear,110,2013-02-06 22:53:00
6:53 PM,73.0,63.0,71,30.09,10.0,ESE,8.1,-,N/A,,Clear,110,2013-02-06 23:53:00
7:53 PM,72.0,60.1,66,30.10,10.0,East,8.1,-,N/A,,Clear,90,2013-02-07 00:53:00
8:53 PM,72.0,61.0,68,30.10,10.0,East,8.1,-,N/A,,Clear,100,2013-02-07 01:53:00
9:53 PM,72.0,61.0,68,30.11,10.0,ESE,9.2,-,N/A,,Partly Cloudy,110,2013-02-07 02:53:00
10:53 PM,72.0,62.1,71,30.11,10.0,ESE,8.1,-,N/A,,Partly Cloudy,110,2013-02-07 03:53:00
11:53 PM,72.0,62.1,71,30.10,10.0,ESE,8.1,-,N/A,,Partly Cloudy,110,2013-02-07 04:53:00